Location: Newark
(60.5925°N, 45.5911°E)
Time: 20:54:10
(UTC+00:00)

ISS - Pass Details

Date: 26 September 2019
Orbit: 411 x 421 km, 51.6° (Epoch: 13 October)

Event Time Altitude Azimuth Distance (km) Brightness Sun altitude
Rises 17:51:17 0° 253° (WSW) 2,345 0.5 -21.8°
Reaches altitude 10° 17:53:52 10° 231° (SW) 1,483 -0.9 -22.0°
Enters shadow 17:53:59 11° 230° (SW) 1,454 -0.9 -22.0°
